Location: Armagh
(54.3500°N, 6.6670°W)
Time: 07:32:12
(UTC+00:00)

ISS - Pass Details

Date: 12 December 2017
Orbit: 402 x 407 km, 51.6° (Epoch: 24 January)

Event Time Altitude Azimuth Distance (km) Brightness Sun altitude
Rises 19:14:16 0° 274° (W) 2,341 1.3 -26.3°
Reaches altitude 10° 19:17:15 10° 245° (WSW) 1,474 -0.1 -26.8°
Maximum altitude 19:18:47 13° 217° (SW) 1,318 -0.8 -27.0°
Enters shadow 19:18:50 13° 216° (SW) 1,318 -0.8 -27.0°
